Vienna, OH

12:12 PM EDT on September 29, 2016 (GMT -0400)
Youngstown-Warren Regional

Weather History for KYNG - May, 2014

Change the Weather History Date:

Thursday, May 29, 2014

  Actual Average Record
Temperature  
Mean Temperature 62 °F 61 °F  
Max Temperature 74 °F 72 °F 91 °F (1942)
Min Temperature 50 °F 50 °F 34 °F (2004)
Degree Days  
Heating Degree Days 3 5  
Month to date heating degree days 204 242  
Since 1 July heating degree days 6826 6269  
Cooling Degree Days 0 2  
Month to date cooling degree days 55 26  
Year to date cooling degree days 55 35  
Growing Degree Days 14 (Base 50)    
Moisture  
Dew Point 53 °F    
Average Humidity 68    
Maximum Humidity 89    
Minimum Humidity 46    
Precipitation  
Precipitation 0.00 in 0.13 in 0.61 in (1974)
Month to date precipitation 3.55 3.53  
Year to date precipitation 15.09 14.53  
Snow  
Snow 0.00 in 0.00 in - ()
Month to date snowfall T 0.0  
Since 1 July snowfall 90.1 62.7  
Snow Depth 0.00 in    
Sea Level Pressure  
Sea Level Pressure 30.07 in    
Wind  
Wind Speed 6 mph (North)    
Max Wind Speed 21 mph    
Max Gust Speed 23 mph    
Visibility 10 miles    
Events      
T = Trace of Precipitation, MM = Missing Value Source: NWS Daily Summary

Daily Weather History Graph

Daily Weather History Graph

Search for Another Location

Airport or City:

Trip Planner

Search our weather history database for the weather conditions in past years. The results will help you decide how hot, cold, wet, or windy it might be!

Date:

Astronomy

May. 29, 2014 Rise Set
Actual Time 5:53 AM EDT 8:47 PM EDT
Civil Twilight 5:20 AM EDT 9:19 PM EDT
Nautical Twilight 4:39 AM EDT 10:01 PM EDT
Astronomical Twilight 3:51 AM EDT 10:49 PM EDT
Moon 6:46 AM EDT 9:35 PM EDT
Length of Visible Light 15h 59m
Length of Day
14h 53m
New Moon, 1% of the Moon is Illuminated
May 29
New Moon
Jun 5
First Quarter
Jun 13
Full
Jun 19
Last Quarter
Jun 27
New

Hourly Weather History & Observations

Time (EDT) Temp. Dew Point Humidity Pressure Visibility Wind Dir Wind Speed Gust Speed Precip Events Conditions
12:51 AM 63.0 °F 54.0 °F 72% 30.05 in 10.0 mi North 4.6 mph - N/A   Overcast
1:51 AM 62.1 °F 54.0 °F 75% 30.04 in 10.0 mi North 5.8 mph - N/A   Overcast
2:51 AM 61.0 °F 54.0 °F 78% 30.03 in 10.0 mi North 4.6 mph - N/A   Overcast
3:51 AM 60.1 °F 54.0 °F 80% 30.03 in 10.0 mi North 3.5 mph - N/A   Overcast
4:51 AM 59.0 °F 54.0 °F 83% 30.03 in 10.0 mi North 4.6 mph - N/A   Overcast
5:51 AM 59.0 °F 54.0 °F 83% 30.04 in 10.0 mi NNE 3.5 mph - N/A   Overcast
6:51 AM 59.0 °F 54.0 °F 83% 30.05 in 10.0 mi North 3.5 mph - N/A   Overcast
7:51 AM 60.1 °F 54.0 °F 80% 30.06 in 10.0 mi North 5.8 mph - N/A   Overcast
8:51 AM 63.0 °F 55.0 °F 75% 30.08 in 10.0 mi Calm Calm - N/A   Mostly Cloudy
9:51 AM 68.0 °F 55.0 °F 63% 30.08 in 10.0 mi North 4.6 mph - N/A   Mostly Cloudy
10:51 AM 70.0 °F 54.0 °F 57% 30.08 in 10.0 mi WNW 5.8 mph - N/A   Mostly Cloudy
11:51 AM 71.1 °F 54.0 °F 55% 30.09 in 10.0 mi WNW 9.2 mph - N/A   Scattered Clouds
12:51 PM 72.0 °F 55.0 °F 55% 30.09 in 10.0 mi NW 6.9 mph 17.3 mph N/A   Scattered Clouds
1:51 PM 73.9 °F 55.0 °F 52% 30.08 in 10.0 mi NW 13.8 mph - N/A   Scattered Clouds
2:51 PM 73.0 °F 52.0 °F 48% 30.08 in 10.0 mi NW 8.1 mph - N/A   Scattered Clouds
3:51 PM 72.0 °F 53.1 °F 51% 30.08 in 10.0 mi NNW 15.0 mph 23.0 mph N/A   Scattered Clouds
4:51 PM 71.1 °F 52.0 °F 51% 30.07 in 10.0 mi NNW 10.4 mph - N/A   Scattered Clouds
5:51 PM 70.0 °F 53.1 °F 55% 30.05 in 10.0 mi Variable 4.6 mph - N/A   Scattered Clouds
6:51 PM 68.0 °F 52.0 °F 56% 30.06 in 10.0 mi NW 8.1 mph - N/A   Mostly Cloudy
7:51 PM 64.9 °F 50.0 °F 58% 30.09 in 10.0 mi North 8.1 mph - N/A   Mostly Cloudy
8:51 PM 61.0 °F 48.9 °F 64% 30.09 in 10.0 mi North 6.9 mph - N/A   Scattered Clouds
9:51 PM 57.0 °F 48.9 °F 74% 30.11 in 10.0 mi North 4.6 mph - N/A   Scattered Clouds
10:51 PM 55.0 °F 48.9 °F 80% 30.12 in 10.0 mi North 5.8 mph - N/A   Partly Cloudy
11:51 PM 54.0 °F 50.0 °F 86% 30.12 in 10.0 mi NNE 6.9 mph - N/A   Partly Cloudy